| time (UTC) | temp F | wind direction | speed knots | gust knots | rain 1hr in | rain 24hr in | rain mn in | humidity % | barometer mb |
| 20260505112005 | 62 | 15 | 1.7 | 4.3 | 0.00 | 0.00 | 0.00 | 65 | 1011.8 |
| 20260505111006 | 62 | 13 | 2.6 | 5.2 | 0.00 | 0.00 | 0.00 | 65 | 1011.9 |
| 20260505102006 | 62 | 24 | 2.6 | 6.1 | 0.00 | 0.00 | 0.00 | 68 | 1012.1 |
| 20260505101006 | 61 | 13 | 1.7 | 6.1 | 0.00 | 0.00 | 0.00 | 72 | 1012.1 |
| 20260505100006 | 60 | 16 | 1.7 | 6.1 | 0.00 | 0.00 | 0.00 | 73 | 1012.0 |
| 20260505095006 | 59 | 12 | 2.6 | 4.3 | 0.00 | 0.00 | 0.00 | 72 | 1012.2 |
| 20260505094006 | 59 | 15 | 1.7 | 7.0 | 0.00 | 0.00 | 0.00 | 73 | 1012.3 |
| 20260505093006 | 58 | 15 | 1.7 | 7.8 | 0.00 | 0.00 | 0.00 | 74 | 1012.3 |
| 20260505091007 | 58 | 1 | 1.7 | 5.2 | 0.00 | 0.00 | 0.00 | 76 | 1012.3 |
| 20260505090006 | 58 | 18 | 2.6 | 7.0 | 0.00 | 0.00 | 0.00 | 78 | 1012.4 |
| 20260505085006 | 57 | 350 | 0.9 | 5.2 | 0.00 | 0.00 | 0.00 | 82 | 1012.5 |
| 20260505084006 | 57 | 335 | 0.9 | 6.1 | 0.00 | 0.00 | 0.00 | 80 | 1012.6 |
| 20260505083006 | 57 | 0 | 1.7 | 7.0 | 0.00 | 0.00 | 0.00 | 81 | 1012.5 |
| 20260505082005 | 55 | 22 | 0.9 | 2.6 | 0.00 | 0.00 | 0.00 | 84 | 1012.6 |
| 20260505081006 | 54 | 26 | 0.9 | 2.6 | 0.00 | 0.00 | 0.00 | 87 | 1012.4 |
| 20260505074006 | 54 | 26 | 0.9 | 2.6 | 0.00 | 0.00 | 0.00 | 88 | 1012.5 |
| 20260505073006 | 54 | 26 | 0.9 | 2.6 | 0.00 | 0.00 | 0.00 | 88 | 1012.5 |
| 20260505071006 | 53 | 28 | 0.0 | 1.7 | 0.00 | 0.00 | 0.00 | 90 | 1012.6 |
| 20260505070007 | 53 | 28 | 0.0 | 1.7 | 0.00 | 0.00 | 0.00 | 90 | 1012.5 |
| 20260505065006 | 53 | 24 | 0.0 | 2.6 | 0.00 | 0.00 | 0.00 | 90 | 1012.5 |
| 20260505064006 | 53 | 24 | 0.9 | 2.6 | 0.00 | 0.00 | 0.00 | 90 | 1012.6 |
| 20260505063005 | 53 | 26 | 1.7 | 2.6 | 0.00 | 0.00 | 0.00 | 90 | 1012.7 |
| 20260505062006 | 53 | 36 | 1.7 | 2.6 | 0.00 | 0.00 | 0.00 | 90 | 1012.6 |
| 20260505061004 | 53 | 54 | 0.9 | 2.6 | 0.00 | 0.00 | 0.00 | 90 | 1012.6 |
| 20260505055006 | 53 | 136 | 0.9 | 1.7 | 0.00 | 0.00 | 0.00 | 91 | 1012.5 |
| 20260505054006 | 53 | 136 | 0.9 | 1.7 | 0.00 | 0.00 | 0.00 | 91 | 1012.5 |
| 20260505053005 | 53 | 136 | 0.0 | 1.7 | 0.00 | 0.00 | 0.00 | 91 | 1012.4 |
| 20260505052005 | 53 | 136 | 0.0 | 1.7 | 0.00 | 0.00 | 0.00 | 91 | 1012.5 |
| 20260505051006 | 53 | 136 | 0.0 | 1.7 | 0.00 | 0.00 | 0.00 | 92 | 1012.4 |
| 20260505041005 | 54 | 136 | 0.0 | 0.9 | 0.00 | 0.00 | 0.00 | 93 | 1012.5 |
| 20260505035005 | 54 | 136 | 0.0 | 0.9 | 0.00 | 0.00 | 0.00 | 93 | 1012.5 |
| 20260505034005 | 54 | 136 | 0.0 | 0.9 | 0.00 | 0.00 | 0.00 | 93 | 1012.6 |
| 20260505033005 | 54 | 136 | 0.0 | 0.0 | 0.00 | 0.00 | 0.00 | 93 | 1012.8 |
| 20260505032005 | 54 | 136 | 0.0 | 0.0 | 0.00 | 0.00 | 0.00 | 93 | 1012.8 |
| 20260505031005 | 54 | 136 | 0.0 | 0.0 | 0.00 | 0.00 | 0.00 | 93 | 1012.9 |
| 20260505030005 | 54 | 136 | 0.0 | 0.0 | 0.00 | 0.00 | 0.00 | 93 | 1012.9 |
| 20260505025005 | 54 | 136 | 0.0 | 0.0 | 0.00 | 0.00 | 0.00 | 93 | 1013.0 |
| 20260505023005 | 54 | 136 | 0.0 | 0.9 | 0.00 | 0.00 | 0.00 | 93 | 1012.9 |
| 20260505022006 | 54 | 136 | 0.0 | 0.0 | 0.00 | 0.00 | 0.00 | 93 | 1013.0 |
| 20260505021005 | 54 | 136 | 0.0 | 0.0 | 0.00 | 0.00 | 0.00 | 93 | 1012.9 |
| 20260505020005 | 54 | 136 | 0.0 | 0.0 | 0.00 | 0.00 | 0.00 | 93 | 1013.0 |
| 20260505015007 | 54 | 136 | 0.0 | 1.7 | 0.00 | 0.00 | 0.00 | 93 | 1013.1 |
| 20260505014005 | 54 | 136 | 0.9 | 1.7 | 0.00 | 0.00 | 0.00 | 93 | 1013.2 |
| 20260505012005 | 54 | 136 | 0.0 | 0.0 | 0.00 | 0.00 | 0.00 | 92 | 1013.5 |
| 20260505010005 | 54 | 136 | 0.0 | 0.9 | 0.00 | 0.00 | 0.00 | 92 | 1013.5 |
| 20260505005005 | 54 | 136 | 0.0 | 1.7 | 0.00 | 0.00 | 0.00 | 92 | 1013.6 |
| 20260505004006 | 54 | 136 | 0.9 | 6.1 | 0.00 | 0.00 | 0.00 | 92 | 1013.6 |
| 20260505003005 | 54 | 135 | 2.6 | 6.1 | 0.00 | 0.00 | 0.00 | 92 | 1013.7 |
| 20260505002005 | 55 | 135 | 1.7 | 6.1 | 0.00 | 0.00 | 0.00 | 92 | 1013.6 |
| 20260505001007 | 55 | 137 | 2.6 | 6.1 | 0.00 | 0.00 | 0.00 | 91 | 1013.7 |
| 20260504235007 | 55 | 136 | 0.9 | 2.6 | 0.00 | 0.00 | 0.00 | 91 | 1013.7 |
| 20260504234005 | 55 | 136 | 1.7 | 4.3 | 0.00 | 0.00 | 0.00 | 91 | 1013.9 |
| 20260504233005 | 55 | 136 | 4.3 | 6.1 | 0.00 | 0.00 | 0.00 | 90 | 1013.8 |
| 20260504232007 | 55 | 136 | 0.0 | 0.0 | 0.00 | 0.00 | 0.00 | 89 | 1013.7 |
| 20260504230005 | 55 | 136 | 0.0 | 0.0 | 0.00 | 0.00 | 0.00 | 89 | 1013.8 |
| 20260504225005 | 55 | 136 | 0.0 | 1.7 | 0.00 | 0.00 | 0.00 | 89 | 1013.8 |
| 20260504224005 | 55 | 136 | 0.9 | 1.7 | 0.00 | 0.00 | 0.00 | 88 | 1013.9 |
| 20260504223006 | 55 | 136 | 0.0 | 0.9 | 0.00 | 0.00 | 0.00 | 88 | 1013.9 |
| 20260504222005 | 55 | 136 | 0.0 | 1.7 | 0.00 | 0.00 | 0.00 | 88 | 1013.9 |
| 20260504214005 | 56 | 136 | 0.0 | 2.6 | 0.00 | 0.00 | 0.00 | 86 | 1014.0 |
| 20260504213005 | 56 | 136 | 0.9 | 4.3 | 0.00 | 0.00 | 0.00 | 87 | 1014.1 |
| 20260504212005 | 56 | 135 | 2.6 | 4.3 | 0.00 | 0.00 | 0.00 | 87 | 1014.1 |
| 20260504211004 | 56 | 135 | 0.0 | 0.9 | 0.00 | 0.00 | 0.00 | 85 | 1014.0 |
| 20260504210005 | 57 | 135 | 0.0 | 0.9 | 0.00 | 0.00 | 0.00 | 86 | 1014.1 |
| 20260504205005 | 57 | 135 | 0.0 | 0.9 | 0.00 | 0.00 | 0.00 | 86 | 1014.1 |
| 20260504204005 | 57 | 135 | 0.0 | 0.0 | 0.00 | 0.00 | 0.00 | 86 | 1014.1 |
| 20260504201005 | 57 | 135 | 0.0 | 0.0 | 0.00 | 0.00 | 0.00 | 84 | 1013.9 |
| 20260504195004 | 58 | 135 | 0.0 | 0.0 | 0.00 | 0.00 | 0.00 | 82 | 1013.8 |
| 20260504193006 | 58 | 135 | 0.0 | 1.7 | 0.00 | 0.00 | 0.00 | 80 | 1013.7 |
| 20260504192005 | 59 | 135 | 0.0 | 0.0 | 0.00 | 0.00 | 0.00 | 80 | 1013.6 |
| 20260504190005 | 59 | 135 | 0.0 | 0.9 | 0.00 | 0.00 | 0.00 | 79 | 1013.4 |
| 20260504185005 | 60 | 135 | 0.0 | 1.7 | 0.00 | 0.00 | 0.00 | 78 | 1013.4 |
| 20260504184004 | 60 | 135 | 0.9 | 2.6 | 0.00 | 0.00 | 0.00 | 78 | 1013.4 |
| 20260504183004 | 60 | 135 | 1.7 | 4.3 | 0.00 | 0.00 | 0.00 | 77 | 1013.4 |
| 20260504182004 | 61 | 135 | 0.9 | 4.3 | 0.00 | 0.00 | 0.00 | 75 | 1013.3 |
| 20260504181007 | 61 | 132 | 3.5 | 6.1 | 0.00 | 0.00 | 0.00 | 75 | 1013.3 |
| 20260504180005 | 62 | 133 | 2.6 | 7.0 | 0.00 | 0.00 | 0.00 | 74 | 1013.3 |
| 20260504175004 | 62 | 134 | 2.6 | 6.1 | 0.00 | 0.00 | 0.00 | 74 | 1013.3 |
| 20260504174004 | 62 | 130 | 2.6 | 4.3 | 0.00 | 0.00 | 0.00 | 74 | 1013.3 |
| 20260504173004 | 62 | 140 | 1.7 | 6.1 | 0.00 | 0.00 | 0.00 | 74 | 1013.4 |
| 20260504172004 | 62 | 140 | 2.6 | 6.1 | 0.00 | 0.00 | 0.00 | 75 | 1013.4 |
| 20260504171004 | 63 | 138 | 2.6 | 7.0 | 0.00 | 0.00 | 0.00 | 72 | 1013.3 |
| 20260504151004 | 67 | 134 | 7.8 | 12.2 | 0.00 | 0.00 | 0.00 | 63 | 1013.2 |
| 20260504141004 | 69 | 127 | 4.3 | 10.4 | 0.00 | 0.00 | 0.00 | 66 | 1013.5 |